Regional Weather Roundup
Issued by NWS

Home | Current Version | Previous Version | Graphics & Text | Print | Product List | Glossary On
Versions: 1 2 3 4 5 6 7 8 9 10 11 12 13 14 15 16 17 18 19 20 21 22 23 24 25 26 27 28 29 30 31 32 33 34 35 36 37 38 39 40 41 42 43 44 45 46 47 48 49 50
000
ASUS43 KMKX 030459
RWRWI

WISCONSIN REGIONAL WEATHER ROUNDUP
NATIONAL WEATHER SERVICE MILWAUKEE/SULLIVAN WI
1100 PM CST MON MAR 02 2015

NOTE: "FAIR" INDICATES FEW OR NO CLOUDS BELOW 12,000 FEET WITH NO
SIGNIFICANT WEATHER AND/OR OBSTRUCTIONS TO VISIBILITY.

WIZ001-002-006>008-014>016-023>028-030600-
NORTHWEST WISCONSIN

CITY           SKY/WX    TMP DP  RH WIND       PRES   REMARKS
SUPERIOR ARPT  CLOUDY    22   6  50 SW7       30.06F WCI  14
ASHLAND        CLOUDY    22   4  46 S9        30.08F WCI  12
HAYWARD        CLOUDY    21   7  54 S13       30.06F WCI   9
SIREN          CLOUDY    22   7  52 S8        30.08F WCI  12
CUMBERLAND     CLOUDY    21   9  58 S13       30.08F WCI   9
RICE LAKE      CLOUDY    22   8  54 S9        30.10F WCI  12
CHETEK         CLOUDY    22   9  57 SE8       30.11F WCI  12
LADYSMITH      CLOUDY    22   8  54 S6        30.12F WCI  14
EAU CLAIRE     NOT AVBL
MENOMONIE      CLOUDY    23  10  56 S8        30.12F WCI  14
NEW RICHMOND   CLOUDY    21  10  63 S8        30.10F WCI  11
OSCEOLA        CLOUDY    22  11  64 S10       30.12F WCI  11
$$

WIZ003>005-009-010-017-018-030600-
NORTH CENTRAL WISCONSIN

CITY           SKY/WX    TMP DP  RH WIND       PRES   REMARKS
MANITOWISH WTR FAIR      15   1  55 S8        30.07F WCI   4
ARBOR VITAE    FAIR      19   4  53 S8        30.09F WCI   9
WOODRUFF       FAIR      19   4  53 S8        30.09F WCI   9
RHINELANDER    CLOUDY    20   3  48 S9        30.10F WCI   9
EAGLE RIVER    FAIR      16   0  47 S6        30.10F WCI   8
LAND O LAKES   FAIR      16   2  55 S6        30.09F WCI   7
PHILLIPS       CLOUDY    18   6  58 S6        30.08F WCI  10
TOMAHAWK       CLOUDY    18   5  57 CALM      30.12F
MEDFORD        CLOUDY    20   8  59 S6        30.10F WCI  12
MERRILL        CLOUDY    20   6  54 CALM      30.14F
$$

WIZ029-030-035-036-043>047-030600-
CENTRAL WISCONSIN

CITY           SKY/WX    TMP DP  RH WIND       PRES   REMARKS
WAUSAU         CLOUDY    22   9  57 SE8       30.12F WCI  12
MOSINEE        CLOUDY    23  12  63 S7        30.16F WCI  15
MARSHFIELD     CLOUDY    23  10  57 S9        30.12F WCI  13
STEVENS POINT  CLOUDY    22  10  58 S8        30.18F WCI  13
WAUPACA        CLOUDY    26  13  57 S8        30.21F WCI  18
WAUTOMA        NOT AVBL
WISC RAPIDS    CLOUDY    24   9  52 S10       30.17F WCI  14
CAMP DOUGLAS   NOT AVBL
$$

WIZ011>013-019>022-031-037>040-048>050-030600-
NORTHEAST WISCONSIN

CITY           SKY/WX    TMP DP  RH WIND       PRES   REMARKS
ANTIGO         CLOUDY    18   7  63 S7        30.14F WCI   9
SHAWANO        CLOUDY    26  12  57 CALM      30.21F
OCONTO         FAIR      22  15  72 CALM      30.23F
STURGEON BAY   FAIR      21  14  73 S8        30.25F WCI  12
GREEN BAY      CLOUDY    24  16  71 S6        30.23F WCI  17
MANITOWOC      NOT AVBL
APPLETON       CLOUDY    25  10  54 S9        30.22F WCI  15
CLINTONVILLE   CLOUDY    25  12  58 S7        30.20F WCI  17
OSHKOSH        CLOUDY    24  14  65 S10       30.21F WCI  14
$$

WIZ032>034-041-042-053>061-030600-
SOUTHWEST WISCONSIN

CITY           SKY/WX    TMP DP  RH WIND       PRES   REMARKS
LA CROSSE      CLOUDY    26  14  60 S9        30.15F WCI  17
SPARTA         CLOUDY    24  15  66 S5        30.18F WCI  19
VIROQUA        CLOUDY    22  15  75 SE8       30.13F WCI  13
BOSCOBEL       CLOUDY    26  16  65 VRB3      30.18F
PRAIRIE DU CHI CLOUDY    25  15  65 SE6       30.18F WCI  18
PLATTEVILLE    CLOUDY    24  17  75 E7        30.17F WCI  16
$$

WIZ056-057-062-063-064-067-068-030600-
SOUTH CENTRAL WISCONSIN

CITY           SKY/WX    TMP DP  RH WIND       PRES   REMARKS
REEDSBURG      CLOUDY    23  15  69 SE6       30.19F WCI  16
BARABOO/DELLS  MOCLDY    23  15  71 S9        30.19F WCI  13
LONE ROCK      NOT AVBL
MINERAL POINT  CLOUDY    27  19  74 SE10      30.16F WCI  17
MADISON        CLOUDY    24  15  68 S8        30.20F WCI  15
MIDDLETON      CLOUDY    26  16  67 S7        30.21F WCI  18
WATERTOWN      CLOUDY    24  16  73 S6        30.23F WCI  17
MONROE         CLOUDY    23  19  86 SE9       30.19F WCI  13
JANESVILLE     CLOUDY    27  16  63 S7        30.21F WCI  19
$$

WIZ051-052-058>065-066-070>072-030600-
SOUTHEAST WISCONSIN

CITY           SKY/WX    TMP DP  RH WIND       PRES   REMARKS
MILWAUKEE      CLOUDY    26  17  68 S7        30.25F WCI  18
WAUKESHA       MOCLDY    23  14  68 S5        30.25F WCI  17
MILWAUKEE/TIMM CLOUDY    27  18  69 S6        30.26F WCI  20
RACINE         CLOUDY    26  16  65 SW8       30.27F WCI  18
BURLINGTON     CLOUDY    23  15  71 S6        30.25F WCI  16
KENOSHA        CLOUDY    26  17  68 S5        30.25F WCI  20
FOND DU LAC    CLOUDY    25  13  60 S9        30.22F WCI  15
SHEBOYGAN      CLOUDY    25  14  63 S10       30.23F WCI  15
WEST BEND      CLOUDY    25  14  63 S6        30.23F WCI  18
JUNEAU         CLOUDY    24  15  69 S9        30.24F WCI  14
$$

LSZ147-162-030600-
LAKE SUPERIOR

STATION/POSITION TIME  TEMP    WIND        PRES    WAVE
                       AIR SEA DIR/SP/G            HT/PER
                 (UTC) (F)     (DEG/KT/KT) (MB)    (FT/S)
DEVILS ISLAND    0400   22     210/  7/  8 1020.8F
PORT WING        0400   21     180/  7/ 13 1018.6F
SAXON HARBOR     0400   23     190/  8/ 12 1019.3F
$$

LMZ867-665-643>646-030600-
LAKE MICHIGAN

STATION/POSITION TIME  TEMP    WIND        PRES    WAVE
                       AIR SEA DIR/SP/G            HT/PER
                 (UTC) (F)     (DEG/KT/KT) (MB)    (FT/S)
NORTHPORT PIER   0402   21     210/  3/  7 1024.4F
SISTER BAY       0413   21     210/ 11/ 12   N/A
KEWAUNEE LAKESHO 0400   24                 1023.9F
SHEBOYGAN LAKESH 0400   27     200/ 15/ 17 1026.0F
PORT WASHINGTON  0400   26     210/  6/  7 1025.7F
MILWAUKEE LAKESH 0400   26     200/  9/ 10   N/A
KENOSHA   LAKESH 0400   27     220/  5/  7 1025.7F
$$

TC  - TEMPERATURE IN CELSIUS
VSB - VISIBILITY IN STATUTE MILES
WCI - WIND CHILL INDEX
HX  - HEAT INDEX




USA.gov is the U.S. government's official web portal to all federal, state and local government web resources and services.